Home > Weather > Thane > Past weeks

Flag for India Weather for the Past 2 Weeks in Thane, Maharashtra, India

Now
81 °F

Clear.


Feels Like: 81 °F
Forecast: 69 / 89 °F
Wind: 8 mph from Northwest

Location: Mumbai / Santacruz

Current Time: Feb 13, 2016 at 5:06:11 PM

Latest Report: Feb 13, 2016 at 4:30 PM


Visibility: 2 mi

Pressure: 29.89 "Hg

Humidity: 48%

Dew point: 59 °F

Location of ThaneLocation

Historic Weather in Thane — Graph

°F

Thane Temperature Yesterday

Maximum temperature yesterday: 81 °F (at 11:00 AM)
Minimum temperature yesterday: 70 °F (at 4:30 AM)
Average temperature yesterday: 76 °F

High & Low Weather Summary for the Past Weeks

 TemperatureHumidityPressure
High91 °F (Feb 2, 2:00 PM)88% (Feb 6, 4:30 AM)30.04 "Hg (Feb 6, 4:30 AM)
Low68 °F (Feb 8, 4:00 AM)25% (Feb 10, 2:30 PM)29.80 "Hg (Feb 6, 4:30 AM)
Average78 °F59%29.92 "Hg
* Reported Jan 29 3:30 PM — Feb 13 4:00 PM, Thane, Weather by CustomWeather, © 2016

Note: Actual official high and low records may vary slightly from our data, if they occured in-between our weather recording intervals... More about our weather records

Advertising

Thane Weather History for the Previous 24 Hours

 ConditionsComfort  
Time TempWeatherWind HumidityBarometerVisibility
4:00 PM
Sat, Feb 13
81 °FClear.8 mph51%29.86 "Hg2 mi
3:30 PM82 °FClear.12 mph51%29.89 "Hg2 mi
3:00 PM81 °FClear.13 mph54%29.89 "Hg2 mi
2:30 PM82 °FClear.13 mph51%29.89 "Hg2 mi
2:00 PM81 °FClear.10 mph54%29.92 "Hg2 mi
1:30 PM82 °FClear.12 mph51%29.92 "Hg2 mi
1:00 PM82 °FClear.6 mph45%29.95 "Hg2 mi
12:30 PM81 °FClear.7 mph48%29.95 "Hg2 mi
12:00 PM79 °FClear.6 mph51%29.98 "Hg2 mi
11:30 AM79 °FPassing clouds.9 mph51%29.98 "Hg2 mi
11:00 AM79 °FScattered clouds.6 mph54%29.98 "Hg2 mi
10:30 AM77 °FScattered clouds.10 mph57%30.01 "Hg2 mi
10:00 AM75 °FScattered clouds.8 mph61%30.01 "Hg2 mi
9:30 AM73 °FHaze.7 mph65%29.98 "Hg2 mi
9:00 AM73 °FHaze.8 mph65%29.98 "Hg2 mi
8:30 AM72 °FHaze.7 mph69%29.98 "Hg1 mi
8:00 AM72 °FHaze.3 mph69%29.98 "Hg1 mi
7:30 AM70 °FHaze.3 mph73%29.95 "Hg1 mi
7:00 AM70 °FHaze.3 mph73%29.95 "Hg1 mi
6:30 AM70 °FHaze.5 mph73%29.95 "Hg1 mi
5:30 AM70 °FHaze.3 mph73%29.92 "Hg2 mi
4:30 AM70 °FHaze.3 mph73%29.92 "Hg2 mi
3:30 AM70 °FHaze.3 mph73%29.92 "Hg2 mi
3:00 AM72 °FHaze.2 mph69%29.92 "Hg2 mi
2:30 AM72 °FHaze.2 mph69%29.92 "Hg2 mi
2:00 AM72 °FHaze.2 mph69%29.92 "Hg2 mi
1:30 AM72 °FHaze.No wind69%29.95 "Hg2 mi
1:00 AM73 °FHaze.2 mph65%29.95 "Hg2 mi
12:30 AM73 °FHaze.5 mph65%29.95 "Hg2 mi
12:00 AM73 °FHaze.3 mph69%29.95 "Hg2 mi
11:30 PM
Fri, Feb 12
73 °FHaze.6 mph65%29.95 "Hg2 mi
11:00 PM75 °FHaze.5 mph61%29.95 "Hg2 mi
10:30 PM75 °FHaze.6 mph61%29.95 "Hg2 mi
10:00 PM75 °FHaze.7 mph61%29.95 "Hg2 mi
9:30 PM75 °FHaze.6 mph65%29.95 "Hg2 mi
9:00 PM75 °FHaze.7 mph65%29.95 "Hg2 mi
8:30 PM75 °FHaze.9 mph65%29.95 "Hg2 mi
8:00 PM75 °FHaze.8 mph65%29.92 "Hg2 mi
7:30 PM77 °FHaze.9 mph61%29.92 "Hg2 mi
7:00 PM77 °FHaze.9 mph61%29.89 "Hg2 mi
6:30 PM77 °FClear.8 mph57%29.89 "Hg3 mi
6:00 PM77 °FClear.12 mph57%29.89 "Hg3 mi
5:30 PM79 °FClear.14 mph54%29.89 "Hg3 mi
5:00 PM79 °FClear.14 mph54%29.86 "Hg3 mi
Weather by CustomWeather, © 2016

See weather overviewHow to use our weather pages